TimeCST,TemperatureF,Dew PointF,Humidity,Sea Level PressureIn,VisibilityMPH,Wind Direction,Wind SpeedMPH,Gust SpeedMPH,PrecipitationIn,Events,Conditions,WindDirDegrees,DateUTC
12:53 AM,10.9,6.1,81,30.12,10.0,NNW,9.2,-,N/A,,Clear,340,2012-12-24 06:53:00
1:53 AM,10.0,5.0,80,30.11,10.0,North,9.2,-,N/A,,Clear,350,2012-12-24 07:53:00
2:53 AM,9.0,5.0,84,30.10,10.0,North,10.4,-,N/A,,Clear,10,2012-12-24 08:53:00
3:53 AM,8.1,3.0,80,30.14,10.0,WNW,4.6,-,N/A,,Clear,300,2012-12-24 09:53:00
4:53 AM,6.1,1.9,83,30.15,10.0,WNW,5.8,-,N/A,,Clear,300,2012-12-24 10:53:00
5:53 AM,6.8,1.4,79,30.04,10.0,NNW,10.4,-,N/A,,Clear,330,2012-12-24 11:53:00
6:53 AM,7.0,3.0,84,30.17,10.0,NW,11.5,-,N/A,,Clear,310,2012-12-24 12:53:00
7:53 AM,8.1,3.9,83,30.17,9.0,North,10.4,-,N/A,,Clear,350,2012-12-24 13:53:00
8:53 AM,9.0,3.0,77,30.18,10.0,North,13.8,-,N/A,,Clear,360,2012-12-24 14:53:00
9:53 AM,10.0,3.0,73,30.21,10.0,North,16.1,-,N/A,,Clear,10,2012-12-24 15:53:00
10:53 AM,9.0,3.0,77,30.20,10.0,NNE,12.7,-,N/A,,Clear,20,2012-12-24 16:53:00
11:53 AM,12.0,5.0,73,30.21,10.0,NNE,10.4,-,N/A,,Clear,20,2012-12-24 17:53:00
12:53 PM,12.9,6.1,74,30.21,10.0,NNE,13.8,-,N/A,,Clear,30,2012-12-24 18:53:00
1:53 PM,14.0,7.0,74,30.19,10.0,NE,12.7,-,N/A,,Clear,40,2012-12-24 19:53:00
2:53 PM,14.0,8.1,77,30.16,10.0,NE,16.1,-,N/A,,Mostly Cloudy,50,2012-12-24 20:53:00
3:53 PM,14.0,8.1,77,30.16,10.0,NE,15.0,-,N/A,,Overcast,50,2012-12-24 21:53:00
4:53 PM,15.1,8.1,74,30.20,10.0,ENE,8.1,-,N/A,,Overcast,60,2012-12-24 22:53:00
5:53 PM,15.1,9.0,77,30.19,10.0,NE,13.8,-,N/A,,Overcast,40,2012-12-24 23:53:00
6:53 PM,15.1,10.0,80,30.21,10.0,NE,9.2,-,N/A,,Overcast,50,2012-12-25 00:53:00
7:53 PM,14.0,9.0,80,30.22,10.0,NE,12.7,-,N/A,,Overcast,40,2012-12-25 01:53:00
8:53 PM,14.0,9.0,80,30.25,10.0,NNE,10.4,-,N/A,,Overcast,30,2012-12-25 02:53:00
9:44 PM,14.0,8.6,79,30.13,10.0,NNE,11.5,-,N/A,,Mostly Cloudy,20,2012-12-25 03:44:00
9:53 PM,14.0,9.0,80,30.25,10.0,NNE,13.8,-,N/A,,Mostly Cloudy,30,2012-12-25 03:53:00
10:53 PM,14.0,9.0,80,30.28,10.0,NNE,9.2,-,N/A,,Partly Cloudy,30,2012-12-25 04:53:00
11:53 PM,12.9,9.0,84,30.29,10.0,NNE,12.7,-,N/A,,Clear,20,2012-12-25 05:53:00